User: anonymous   Login
Location: Unspecified
(0.0000°N, 0.0000°E)
Time: 18:22:35
(UTC+00:00)
Language:

RAX-2 - Orbit

View from above orbital plane
View from above orbital plane
View from above satellite
View from above satellite

Ground track
Ground track

The orbit data is extracted from the following two-line orbital elements,

1 37853U 11061D   16210.11312474  .00001369  00000-0  87003-4 0  9999
2 37853 101.7103 268.0359 0181274 322.9626  35.9182 14.99921747258036
Epoch (UTC): 28 July 2016 02:42:53
Eccentricity: 0.0181274
inclination: 101.7103°
perigee height: 441 km
apogee height: 693 km
right ascension of ascending node: 268.0359°
argument of perigee: 322.9626°
revolutions per day: 14.99921747
mean anomaly at epoch: 35.9182°
orbit number at epoch: 25803

The dashed part of the orbit path shows where the satellite is in the earth's shadow,  

DLR